TimeCST,TemperatureF,Dew PointF,Humidity,Sea Level PressureIn,VisibilityMPH,Wind Direction,Wind SpeedMPH,Gust SpeedMPH,PrecipitationIn,Events,Conditions,WindDirDegrees,DateUTC
12:52 AM,16.0,10.0,77,30.24,10.0,West,9.2,-,N/A,,Clear,270,2012-12-29 06:52:00
1:52 AM,14.0,9.0,80,30.25,10.0,West,11.5,-,N/A,,Clear,270,2012-12-29 07:52:00
2:52 AM,17.1,10.9,77,30.26,10.0,West,9.2,-,N/A,,Clear,280,2012-12-29 08:52:00
3:52 AM,14.0,8.1,77,30.27,10.0,West,11.5,-,N/A,,Clear,280,2012-12-29 09:52:00
4:52 AM,17.1,9.0,71,30.29,10.0,West,15.0,-,N/A,,Clear,270,2012-12-29 10:52:00
5:52 AM,19.0,10.0,68,30.30,10.0,WNW,13.8,-,N/A,,Clear,300,2012-12-29 11:52:00
6:52 AM,17.1,9.0,71,30.34,10.0,NW,10.4,-,N/A,,Clear,310,2012-12-29 12:52:00
7:52 AM,18.0,9.0,68,30.36,10.0,WNW,13.8,-,N/A,,Clear,300,2012-12-29 13:52:00
8:52 AM,21.9,10.0,60,30.38,10.0,West,11.5,-,N/A,,Clear,280,2012-12-29 14:52:00
9:52 AM,26.1,12.0,55,30.39,10.0,WNW,9.2,-,N/A,,Clear,300,2012-12-29 15:52:00
10:52 AM,30.9,15.1,52,30.40,10.0,WNW,9.2,-,N/A,,Clear,300,2012-12-29 16:52:00
11:52 AM,37.0,14.0,39,30.37,10.0,West,5.8,-,N/A,,Clear,280,2012-12-29 17:52:00
12:52 PM,42.1,12.0,29,30.34,10.0,West,16.1,-,N/A,,Clear,280,2012-12-29 18:52:00
1:52 PM,44.1,10.9,26,30.31,10.0,WNW,16.1,-,N/A,,Clear,290,2012-12-29 19:52:00
2:52 PM,44.1,9.0,24,30.30,10.0,WNW,12.7,-,N/A,,Clear,290,2012-12-29 20:52:00
3:52 PM,45.0,9.0,23,30.29,10.0,West,8.1,-,N/A,,Clear,270,2012-12-29 21:52:00
4:52 PM,42.1,7.0,24,30.28,10.0,WSW,6.9,-,N/A,,Clear,240,2012-12-29 22:52:00
5:52 PM,37.0,8.1,30,30.28,10.0,SSW,3.5,-,N/A,,Clear,200,2012-12-29 23:52:00
6:52 PM,30.2,10.4,44,30.22,10.0,South,4.6,-,N/A,,Clear,190,2012-12-30 00:52:00
7:52 PM,28.0,12.0,51,30.30,10.0,South,9.2,-,N/A,,Clear,180,2012-12-30 01:52:00
8:52 PM,27.0,12.0,53,30.29,10.0,South,9.2,-,N/A,,Clear,180,2012-12-30 02:52:00
9:52 PM,25.0,12.9,60,30.29,10.0,South,9.2,-,N/A,,Clear,190,2012-12-30 03:52:00
10:52 PM,23.0,12.9,65,30.27,10.0,South,9.2,-,N/A,,Clear,190,2012-12-30 04:52:00
11:52 PM,28.0,14.0,56,30.23,10.0,South,13.8,-,N/A,,Clear,190,2012-12-30 05:52:00